Weather Roundup
Issued by NWS

Home | Current Version | Previous Version | Graphics & Text | Print | Product List | Glossary Off
Versions: 1 2 3 4 5 6 7 8 9 10 11 12 13 14 15 16 17 18 19 20 21 22 23 24 25 26 27 28 29 30 31 32 33 34 35 36 37 38 39 40 41 42 43 44 45 46 47 48 49 50

000
NZUS93 KARX 300659
HRRWXR

CURRENT HOURLY OBSERVATIONS ACROSS
MUCH OF THE UPPER MISSISSIPPI VALLEY
NATIONAL WEATHER SERVICE LA CROSSE WI
200 AM CDT THU OCT 30 2014


...SOUTHEAST MINNESOTA...


CITY           SKY/WX    TMP DP  RH WIND       PRES   REMARKS
ROCHESTER      MOCLDY    35  32  88 S7        30.08F WCI  29
ROCHESTER/MAYO PTSUNNY   36  31  82 SE5       30.08F WCI  32
WINONA         CLOUDY    36  34  93 CALM      30.11F
AUSTIN         MOCLDY    36  32  87 SE3       30.07F
ALBERT LEA     PTCLDY    37  34  87 SE5       30.06F WCI  34
DODGE CENTER   CLOUDY    37  34  87 S7        30.07S WCI  32
PRESTON        MOCLDY    33  31  92 S5        30.09F WCI  28
OWATONNA       MOCLDY    39  32  75 SE9       30.05F WCI  33
FARIBAULT      MOCLDY    37  34  87 SE5       30.06F WCI  34
$$

...ELSEWHERE IN MINNESOTA...


CITY           SKY/WX    TMP DP  RH WIND       PRES   REMARKS
MINNEAPOLIS    CLOUDY    38  32  79 SE3       30.07F
INTNL FALLS    CLOUDY    34  33  96 CALM      30.03S
DULUTH         DRIZZLE   36  32  85 W5        30.03F WCI  32
RED WING       CLOUDY    36  34  93 CALM      30.08F
REDWOOD FALLS  CLOUDY    40  32  73 E3        30.03S
MANKATO        CLOUDY    39  30  70 S7        30.04F WCI  34
WORTHINGTON    CLOUDY    46  30  53 S8        30.01S
FAIRMONT       CLOUDY    39  30  70 S6        30.04S WCI  35
$$

...SOUTHWEST WISCONSIN...


CITY           SKY/WX    TMP DP  RH WIND       PRES   REMARKS
LA CROSSE      CLOUDY    36  32  85 SE5       30.11S WCI  32
PRAIRIE DU CHI MOCLDY    33  31  92 CALM      30.12S
BOSCOBEL       MOCLDY    31  28  89 CALM      30.13F
LONE ROCK      NOT AVBL
PLATTEVILLE    MOCLDY    34  31  88 S5        30.12F WCI  30
FORT MC COY    MOCLDY    28  28  99 CALM      30.11F
VIROQUA        FAIR      36  32  84 CALM      30.10S
WIS DELLS      PTCLDY    32  30  93 CALM      30.10F
$$

...ELSEWHERE IN WISCONSIN...


CITY           SKY/WX    TMP DP  RH WIND       PRES   REMARKS
MILWAUKEE      CLEAR     37  30  75 CALM      30.12F
MADISON        PTCLDY    33  30  88 CALM      30.12S
GREEN BAY      PTCLDY    39  35  86 W6        30.10S WCI  35
EAU CLAIRE     NOT AVBL
BLACK RVR FLS  FAIR      29  29 100 CALM      30.11S
MEDFORD        PTCLDY    31  30  96 CALM      30.07S
WAUSAU         PTCLDY    34  31  88 CALM      30.07F
WIS RAPIDS     PTCLDY    31  29  92 CALM      30.10F
MARSHFIELD     PTCLDY    33  29  85 CALM      30.08F
RICE LAKE      FAIR      32  31  96 CALM      30.09S
$$

...NORTHEAST IOWA...


CITY           SKY/WX    TMP DP  RH WIND       PRES   REMARKS
DECORAH        CLOUDY    36  32  87 CALM      30.10S
MASON CITY     PTCLDY    34  32  92 S3        30.08F
CHARLES CITY   CLOUDY    37  32  81 SE5       30.10F WCI  34
OELWEIN        CLOUDY    34  32  93 S5        30.11S WCI  30
$$

...ELSEWHERE IN IOWA...


CITY           SKY/WX    TMP DP  RH WIND       PRES   REMARKS
DES MOINES     PTCLDY    42  33  70 S7        30.09F
IOWA CITY      PTCLDY    33  31  92 CALM      30.14S
FORT DODGE     CLOUDY    43  34  70 S3        30.07S
$$

...NORTHERN ILLINOIS...


CITY           SKY/WX    TMP DP  RH WIND       PRES   REMARKS
CHICAGO-OHARE  PTCLDY    37  31  78 W3        30.13S
CHICAGO-MIDWAY CLEAR     42  34  73 CALM      30.13F
MOLINE         CLEAR     31  28  89 CALM      30.14F
ROCKFORD       PTCLDY    33  29  85 S3        30.15S
PEORIA         CLEAR     36  31  82 CALM      30.16R
$$

NOTE: "FAIR" INDICATES FEW OR NO CLOUDS BELOW 12,000 FEET WITH NO
SIGNIFICANT WEATHER AND/OR OBSTRUCTIONS TO VISIBILITY. WIND
SPEEDS ARE IN MILES-PER-HOUR.



USA.gov is the U.S. government's official web portal to all federal, state and local government web resources and services.